Regional Weather Roundup
Issued by NWS

Home | Current Version | Previous Version | Text Only | Print | Product List | Glossary Off
Versions: 1 2 3 4 5 6 7 8 9 10 11 12 13 14 15 16 17 18 19 20 21 22 23 24 25 26 27 28 29 30 31 32 33 34 35 36 37 38 39 40 41 42 43 44 45 46 47 48 49 50

000
ASUS45 KBOU 202207
RWRCO

WEATHER ROUNDUP FOR COLORADO
NATIONAL WEATHER SERVICE DENVER/BOULDER CO
400 PM MDT WED AUG 20 2014

NOTE: "FAIR" INDICATES FEW OR NO CLOUDS BELOW 12000 FEET WITH NO
SIGNIFICANT WEATHER AND/OR OBSTRUCTIONS TO VISIBILITY.

COZ001>005-013-030-031-202300-
...NORTHWEST COLORADO...

CITY           SKY/WX    TMP DP  RH WIND       PRES   REMARKS
CRAIG          CLOUDY    68  55  63 VRB6      30.09R
HAYDEN         PTSUNNY   63  52  67 NW10      30.11R
MEEKER         PTSUNNY   66  53  63 S5        30.10F
MOUNT WERNER   NOT AVBL
STEAMBOAT SPGS PTSUNNY   67  51  54 NW6       30.11F
WALDEN         MOSUNNY   61  45  55 N10G20    30.19F
$$

COZ006>008-011-202300-
...WEST CENTRAL VALLEYS...

CITY           SKY/WX    TMP DP  RH WIND       PRES   REMARKS
GRAND JUNCTION SUNNY     79  52  38 VRB3      29.98F
MONTROSE       MOSUNNY   77  50  38 N7        30.06S
EAGLE          PTSUNNY   73  46  38 S14       30.10F
RIFLE          MOSUNNY   80  46  30 W18       30.00F
DELTA          MOSUNNY   85  46  26 S8        30.00F
NUCLA          PTSUNNY   75  36  23 SW15      30.11S
$$

COZ017>023-064>068-202300-
...SOUTHWEST COLORADO...

CITY           SKY/WX    TMP DP  RH WIND       PRES   REMARKS
DURANGO        MOSUNNY   79  35  20 W14G24    30.11F
CORTEZ         SUNNY     81  39  22 W16G25    30.10F
PAGOSA SPRINGS PTSUNNY   75  35  22 SW13G22   30.18F
TELLURIDE      NOT AVBL
WOLF CREEK PAS NOT AVBL
$$

COZ009-010-012-014-032>034-037-058>063-202300-
...CENTRAL COLORADO...

CITY           SKY/WX    TMP DP  RH WIND       PRES   REMARKS
ASPEN          MOSUNNY   69  47  45 N8        30.17F
BUENA VISTA    MOSUNNY   77  35  22 W10G20    30.12F
COPPER MTN     PTSUNNY   54  41  62 SW6G18    30.46S
BERTHOUD PASS  CLOUDY    46  46 100 W13       30.50F
COTTONWOOD PAS MOSUNNY   72  32  23 NW6G18    30.28F
GUNNISON       MOSUNNY   75  39  27 W15       30.16F
KREMMLING      PTSUNNY   72  36  26 SW12G21   30.13F
LEADVILLE      MOSUNNY   64  40  41 NW10G21   30.28F
MONARCH PASS   MOSUNNY   55  36  47 W20G35    30.55S
SALIDA         MOSUNNY   79  36  21 W10G20    30.15F
SUNLIGHT       CLOUDY    54  50  87 S3        30.39F
WILKERSON PASS NOT AVBL
$$

COZ069>075-202300-
...SAN LUIS VALLEY/SANGRE DE CRISTO MOUNTAINS...

CITY           SKY/WX    TMP DP  RH WIND       PRES   REMARKS
ALAMOSA        MOSUNNY   79  41  25 SW8       30.11F
LA VETA PASS   NOT AVBL
SAGUACHE       PTSUNNY   68  43  40 S8        30.16R
$$

COZ035-036-038>040-202300-
...NORTHERN COLORADO FRONT RANGE...

CITY           SKY/WX    TMP DP  RH WIND       PRES   REMARKS
DENVER INTL AP PTSUNNY   85  49  28 VRB7      29.93F
DMNS CITY PARK   N/A     85  46  25 S5        29.92S
AURORA         PTSUNNY   80  51  36 S12       29.96S
FRONT RANGE AP NOT AVBL
ERIE MUNI ARPT PTSUNNY   86  38  18 CALM      29.89F
BOULDER MUN AP CLOUDY    88  39  18 W8        29.90S
CENTENNIAL     PTSUNNY   80  47  31 SE12      29.97F
BROOMFIELD     PTSUNNY   86  45  23 S13       29.95S
FORT COLLINS   MOSUNNY   88  50  27 E5        29.87F
LONGMONT       MOSUNNY   91  42  18 NW10      29.89F
$$

COZ041-046-047-076>085-087-088-202300-
...PIKES PEAK/PALMER DIVIDE AND SOUTHERN FOOTHILLS...

CITY           SKY/WX    TMP DP  RH WIND       PRES   REMARKS
COLO. SPRINGS  PTSUNNY   82  46  28 N5        29.99F
A. F. ACADEMY  PTSUNNY   77  48  36 VRB2      30.01F
ELLICOTT       PTSUNNY   83  44  25 S10       29.97F
FALCON         CLOUDY    83  47  28 NE7       30.06S
FORT CARSON    PTSUNNY   84  48  28 CALM      29.95F
LIMON          CLOUDY    84  45  25 S6        29.92F
MONUMENT HILL  PTSUNNY   70  52  52 NE10      30.07F
TRINIDAD       PTSUNNY   86  47  25 SW14      29.95F
$$

COZ042>045-048>051-090-091-202300-
...NORTHEAST COLORADO...

CITY           SKY/WX    TMP DP  RH WIND       PRES   REMARKS
GREELEY ARPT   MOSUNNY   88  48  25 E6        29.88F
AKRON          MOSUNNY   85  53  33 S13       29.88F
BURLINGTON     CLOUDY    91  52  26 NE9       29.84F
WRAY             N/A     93  50  23 N6        29.82S
STERLING       MOSUNNY   93  57  29 SW7       29.82F
HOLYOKE        NOT AVBL
FORT MORGAN    MOSUNNY   87  51  28 SE10      29.88S
$$

COZ086-089-092>099-202300-
...SOUTHEAST COLORADO...

CITY           SKY/WX    TMP DP  RH WIND       PRES   REMARKS
PUEBLO         MOSUNNY   91  46  21 S6        29.85F
LA JUNTA       PTSUNNY   93  48  21 W7        29.82F
LAMAR          PTSUNNY   97  45  16 S14       29.76F
SPRINGFIELD      N/A     93  47  20 SW21G28   29.85S
$$


USA.gov is the U.S. government's official web portal to all federal, state and local government web resources and services.